[[{"header":{"parameterUnit":"m.s-1","parameterCategory":1,"la1":30.2991,"la2":30.254,"lo1":-89.0895,"lo2":-89.0444,"dy":0.0017,"dx":0.0017,"nx":28,"ny":28,"refTime":"2023-09-25T21:00:00:Z","depth":0,"parameterNumber":2,"parameterNumberName":"U-component_of_WINDS"},"data":[0,0,0,0,0,0,0,0,0,0,0,0,0,0,0,0,0,0,0,0,0,0,0,0,0,0,0,0,0,0,0,0,0,0,0,0,0,0,0,0,0,0,0,0,0,0,0,0,0,0,0,0,0,0,0,0,0,0,-3.2557,-3.2558,0,-3.2607,-3.2607,-3.2608,-3.2544,-3.2541,-3.2539,-3.2537,-3.2597,-3.26,-3.2604,0,0,0,0,0,0,0,0,0,0,0,0,0,-3.2418,-3.242,-3.2557,-3.2558,-3.2558,-3.2607,-3.2607,-3.2608,-3.2544,-3.2541,-3.2538,-3.2536,-3.2595,-3.26,-3.2605,0,0,0,0,0,0,0,0,0,0,0,0,0,-3.2474,-3.2421,-3.2557,-3.2532,-3.253,-3.2607,-3.2608,-3.2608,-3.2545,-3.2541,-3.2538,-3.2534,-3.2594,-3.26,-3.2605,-3.2711,0,0,-3.2623,-3.2625,0,0,0,0,0,0,0,0,-3.2471,-3.2479,-3.2535,-3.2534,-3.2532,-3.2565,-3.258,-3.2643,-3.2546,-3.254,-3.2537,-3.2533,-3.259,-3.2596,-3.2613,-3.2714,-3.2716,-3.2623,-3.2626,-3.2629,-3.2631,0,0,0,0,0,0,0,-3.2467,-3.2477,-3.2577,-3.2536,-3.2534,-3.2522,-3.2526,-3.2592,-3.2584,-3.254,-3.2535,-3.2542,-3.2588,-3.2608,-3.2614,-3.2717,-3.2623,-3.2628,-3.2631,-3.2634,-3.2914,-3.2917,0,0,0,0,0,0,-3.2465,-3.2474,-3.2575,-3.2578,-3.2492,-3.2527,-3.2532,-3.2558,-3.2583,-3.2583,-3.2545,-3.2538,-3.26,-3.2607,-3.2616,-3.2745,-3.2629,-3.2634,-3.2637,-3.291,-3.2914,-3.2919,0,0,0,0,0,0,-3.2462,-3.2474,-3.2573,-3.2525,-3.2537,-3.2533,-3.2564,-3.2561,-3.258,-3.2587,-3.2586,-3.2565,-3.2597,-3.2608,-3.2688,-3.2746,-3.2637,-3.2642,-3.2905,-3.2911,-3.2917,-3.3002,0,0,0,0,0,0,-3.2458,-3.2474,-3.2511,-3.2526,-3.2539,-3.2642,-3.2567,-3.2565,-3.2589,-3.2582,-3.2606,-3.2606,-3.2595,-3.268,-3.2694,-3.2752,-3.2646,-3.29,-3.2908,-3.2915,-3.2994,-3.301,-3.3024,0,0,0,0,0,-3.2453,-3.2534,-3.2513,-3.2526,-3.2586,-3.2645,-3.2653,-3.2636,-3.2594,-3.2634,-3.2639,-3.2606,-3.2737,-3.2689,-3.2704,-3.2764,-3.2896,-3.2905,-3.2914,-3.2987,-3.3007,-3.3023,0,0,0,0,0,0,-3.2527,-3.2535,-3.2512,-3.2599,-3.2622,-3.2634,-3.2683,-3.2657,-3.2694,-3.2686,-3.2666,-3.2672,-3.2759,-3.2769,-3.2716,-3.2871,-3.281,-3.2823,-3.2861,-3.2879,-3.2894,-3.289,-3.2651,0,0,0,0,0,-3.2553,-3.2598,-3.2604,-3.268,-3.2693,-3.2686,-3.2712,-3.2697,-3.2721,-3.2731,-3.2741,-3.2768,-3.2816,-3.2848,-3.2892,-3.2995,-3.3002,-3.3044,-3.3059,-3.3071,-3.3083,-3.3143,-3.3163,-3.2949,-3.2948,-3.2948,0,0,-3.2609,-3.2618,-3.2648,-3.2696,-3.2711,-3.2762,-3.2695,-3.275,-3.2789,-3.274,-3.2817,-3.2826,-3.2856,-3.2949,-3.299,-3.296,-3.3144,-3.3083,-3.3093,-3.3098,-3.3155,-3.3175,-3.3193,-3.2955,-3.2954,-3.2953,0,0,-3.2735,-3.2745,-3.2812,-3.2829,-3.2853,-3.2849,-3.2866,-3.2883,-3.2886,-3.2962,-3.2928,-3.2976,-3.3057,-3.3081,-3.3104,-3.3244,-3.3217,-3.3259,-3.3338,-3.3396,-3.3413,-3.3428,-3.3482,-3.3501,-3.327,-3.327,-3.3271,0,-3.2801,-3.2872,-3.285,-3.2909,-3.2933,-3.2889,-3.2959,-3.2978,-3.3017,-3.3036,-3.3001,-3.3105,-3.3122,-3.3222,-3.3257,-3.3275,-3.3297,-3.3256,-3.3412,-3.3427,-3.3441,-3.3492,-3.3512,-3.3276,-3.3275,-3.3274,-3.3274,0,-3.2955,-3.3005,-3.3057,-3.3094,-3.3123,-3.3188,-3.3179,-3.3213,-3.3196,-3.3198,-3.3279,-3.3298,-3.3347,-3.3369,-3.3354,-3.3469,-3.345,-3.3414,-3.3353,-3.3467,-3.3515,-3.3534,-3.3283,-3.3281,-3.328,-3.3278,0,0,-3.3128,-3.3153,-3.3172,-3.319,-3.3216,-3.3256,-3.3321,-3.3367,-3.3398,-3.3427,-3.3484,-3.3556,-3.3524,-3.355,-3.3538,-3.3589,-3.3704,-3.3547,-3.3548,-3.3579,-3.3838,-3.3866,-3.3889,-3.3686,-3.3689,-3.3692,-3.3836,0,-3.3256,-3.3364,-3.3348,-3.3454,-3.3504,-3.3465,-3.3522,-3.3547,-3.355,-3.3596,-3.3601,-3.3654,-3.3605,-3.3621,-3.367,-3.3679,-3.3756,-3.3669,-3.3743,-3.3746,-3.3738,-3.3913,-3.3943,-3.4078,-3.3855,-3.3858,-3.386,0,-3.342,-3.3454,-3.3565,-3.3586,-3.3607,-3.3658,-3.3701,-3.3743,-3.3772,-3.3772,-3.3803,-3.3783,-3.3853,-3.3789,-3.3888,-3.3829,-3.3859,-3.3869,-3.3874,-3.3882,-3.3811,-3.3929,-3.412,-3.4142,-3.3889,-3.3886,-3.3884,0,-3.3539,-3.3613,-3.369,-3.3706,-3.3732,-3.377,-3.3783,-3.3808,-3.3838,-3.3877,-3.3897,-3.3945,-3.3972,-3.4011,-3.4007,-3.396,-3.411,-3.4045,-3.4115,-3.4116,-3.4149,-3.4148,-3.4351,-3.4165,-3.4164,-3.4164,-3.4163,0,-3.3686,-3.3756,-3.3744,-3.3792,-3.3871,-3.3854,-3.3934,-3.3943,-3.3967,-3.4019,-3.3989,-3.4039,-3.4029,-3.4081,-3.4078,-3.4163,-3.4175,-3.418,-3.4179,-3.4184,-3.4184,-3.4204,-3.4196,-3.4169,-3.4168,-3.4167,-3.4166,0,-3.3832,-3.3826,-3.3908,-3.3927,-3.3933,-3.3991,-3.4009,-3.4056,-3.4058,-3.4125,-3.414,-3.4145,-3.4205,-3.4204,-3.4272,-3.4271,-3.4376,-3.4363,-3.4366,-3.4364,-3.4436,-3.443,-3.4661,-3.4693,-3.4484,-3.4486,-3.4487,0,-3.3927,-3.398,-3.4004,-3.4036,-3.4051,-3.4102,-3.4133,-3.412,-3.4154,-3.4193,-3.4237,-3.4294,-3.4338,-3.4437,-3.4449,-3.4503,-3.4493,-3.457,-3.4501,-3.4506,-3.4498,-3.4496,-3.4503,-3.4584,-3.4586,-3.4588,-3.459,0,-3.4097,-3.4093,-3.4136,-3.418,-3.4217,-3.4252,-3.4284,-3.4312,-3.4303,-3.4344,-3.4403,-3.4438,-3.4508,-3.4567,-3.4619,-3.4638,-3.4615,-3.4612,-3.4631,-3.4638,-3.4639,-3.4643,-3.4406,-3.4607,-3.4605,-3.4604,-3.4603,-3.4602,-3.4223,-3.427,-3.4295,-3.4346,-3.4368,-3.44,-3.4446,-3.4455,-3.4503,-3.4557,-3.4548,-3.4616,-3.4649,-3.4716,-3.474,-3.4796,-3.477,-3.4797,-3.4805,-3.4813,-3.4822,-3.4628,-3.4806,-3.4805,-3.4805,-3.4804,-3.4804,0,-3.4394,-3.4409,-3.4456,-3.4501,-3.4543,-3.4514,-3.4549,-3.4587,-3.4647,-3.4678,-3.4722,-3.4794,-3.4852,-3.4869,-3.4926,-3.4969,-3.496,-3.4985,-3.4983,-3.4988,-3.4841,-3.4819,-3.4991,-3.4991,-3.4991,-3.4991,-3.4991,-3.4991,-3.4488,-3.4567,-3.4567,-3.4659,-3.4674,-3.4738,-3.4762,-3.4793,-3.4818,-3.4898,-3.4945,-3.4955,-3.4983,-3.5042,-3.5096,-3.51,-3.5124,-3.5154,-3.5154,-3.5017,-3.4998,-3.498,-3.496,-3.5158,-3.5159,-3.5297,-3.5299,-3.53]},{"header":{"parameterUnit":"m.s-1","parameterCategory":1,"la1":30.2991,"la2":30.254,"lo1":-89.0895,"lo2":-89.0444,"dy":0.0017,"dx":0.0017,"nx":28,"ny":28,"refTime":"2023-09-25T21:00:00:Z","depth":0,"parameterNumber":3,"parameterNumberName":"V-component_of_WINDS"},"data":[0,0,0,0,0,0,0,0,0,0,0,0,0,0,0,0,0,0,0,0,0,0,0,0,0,0,0,0,0,0,0,0,0,0,0,0,0,0,0,0,0,0,0,0,0,0,0,0,0,0,0,0,0,0,0,0,0,0,-0.4259,-0.4258,0,-0.42,-0.4199,-0.4198,-0.4132,-0.4131,-0.413,-0.4129,-0.4069,-0.4069,-0.4068,0,0,0,0,0,0,0,0,0,0,0,0,0,-0.4316,-0.4316,-0.4259,-0.4258,-0.4258,-0.42,-0.4199,-0.4198,-0.4132,-0.4131,-0.4129,-0.4128,-0.4069,-0.4069,-0.4068,0,0,0,0,0,0,0,0,0,0,0,0,0,-0.4278,-0.4315,-0.4259,-0.4217,-0.4213,-0.42,-0.4199,-0.4198,-0.4132,-0.413,-0.4129,-0.4128,-0.407,-0.4069,-0.4068,-0.4091,0,0,-0.4065,-0.4064,0,0,0,0,0,0,0,0,-0.428,-0.4276,-0.4224,-0.422,-0.4215,-0.4171,-0.4197,-0.4162,-0.4132,-0.4163,-0.4129,-0.4127,-0.4105,-0.4101,-0.4093,-0.4089,-0.4086,-0.4065,-0.4064,-0.4064,-0.4063,0,0,0,0,0,0,0,-0.4283,-0.4278,-0.4236,-0.4224,-0.4218,-0.4202,-0.4195,-0.419,-0.4143,-0.416,-0.4155,-0.4149,-0.4102,-0.4094,-0.4091,-0.4085,-0.4065,-0.4064,-0.4063,-0.4063,-0.4099,-0.41,0,0,0,0,0,0,-0.4292,-0.4281,-0.4237,-0.4234,-0.4245,-0.4202,-0.4194,-0.4187,-0.4143,-0.4134,-0.415,-0.4146,-0.4096,-0.4092,-0.4089,-0.4115,-0.4064,-0.4063,-0.4062,-0.4097,-0.4099,-0.4101,0,0,0,0,0,0,-0.4293,-0.4288,-0.424,-0.4256,-0.4248,-0.4203,-0.4195,-0.4187,-0.4179,-0.4135,-0.4126,-0.4151,-0.4095,-0.409,-0.4091,-0.4112,-0.4062,-0.4061,-0.4096,-0.4098,-0.41,-0.4167,0,0,0,0,0,0,-0.4295,-0.4289,-0.4298,-0.4257,-0.4248,-0.4244,-0.4196,-0.4187,-0.4177,-0.4171,-0.4133,-0.4126,-0.4093,-0.4093,-0.4091,-0.411,-0.4061,-0.4094,-0.4097,-0.4099,-0.4163,-0.4171,-0.4179,0,0,0,0,0,-0.4297,-0.4319,-0.4298,-0.4293,-0.4257,-0.4245,-0.424,-0.4202,-0.4179,-0.4187,-0.4159,-0.4127,-0.411,-0.4094,-0.409,-0.411,-0.4092,-0.4096,-0.4099,-0.4159,-0.417,-0.4179,0,0,0,0,0,0,-0.4364,-0.4313,-0.4289,-0.4298,-0.4276,-0.4234,-0.4243,-0.4214,-0.4199,-0.4194,-0.4147,-0.4139,-0.4147,-0.4128,-0.4111,-0.4131,-0.4096,-0.4099,-0.4143,-0.4153,-0.4161,-0.4166,-0.406,0,0,0,0,0,-0.4379,-0.4373,-0.4329,-0.4341,-0.4331,-0.4289,-0.4282,-0.4255,-0.4231,-0.4221,-0.4193,-0.4172,-0.4161,-0.4155,-0.4143,-0.4159,-0.4151,-0.417,-0.4178,-0.4185,-0.4189,-0.4198,-0.4206,-0.4112,-0.4112,-0.4112,0,0,-0.4411,-0.4383,-0.4382,-0.4353,-0.4333,-0.4329,-0.4282,-0.4279,-0.4276,-0.4221,-0.4221,-0.42,-0.4172,-0.4182,-0.4184,-0.4166,-0.4213,-0.4189,-0.4195,-0.4195,-0.4202,-0.4211,-0.4219,-0.4115,-0.4114,-0.4114,0,0,-0.4469,-0.4445,-0.4454,-0.4435,-0.4405,-0.4377,-0.4379,-0.434,-0.4324,-0.4324,-0.4283,-0.4278,-0.4261,-0.4244,-0.4233,-0.4284,-0.4254,-0.4281,-0.4323,-0.4332,-0.434,-0.4346,-0.4366,-0.4374,-0.4284,-0.4284,-0.4284,0,-0.4513,-0.4504,-0.4462,-0.4462,-0.4451,-0.4401,-0.441,-0.4393,-0.4361,-0.4355,-0.4335,-0.4313,-0.4291,-0.4296,-0.4309,-0.43,-0.4303,-0.4286,-0.4342,-0.4348,-0.4353,-0.4372,-0.438,-0.4288,-0.4287,-0.4287,-0.4287,0,-0.4561,-0.4556,-0.4566,-0.4537,-0.4527,-0.4532,-0.4491,-0.4486,-0.4459,-0.4433,-0.4434,-0.4405,-0.4387,-0.4386,-0.4359,-0.4388,-0.4378,-0.435,-0.4315,-0.4366,-0.4384,-0.439,-0.4293,-0.4292,-0.4291,-0.429,0,0,-0.466,-0.4607,-0.4612,-0.4599,-0.4562,-0.4558,-0.456,-0.4542,-0.454,-0.4519,-0.4521,-0.4508,-0.4482,-0.447,-0.444,-0.4448,-0.4493,-0.4419,-0.4418,-0.4436,-0.4525,-0.4548,-0.4557,-0.4472,-0.4473,-0.4474,-0.4528,0,-0.4713,-0.4715,-0.4676,-0.4689,-0.4684,-0.4636,-0.4638,-0.4616,-0.4592,-0.4585,-0.4558,-0.4551,-0.4516,-0.4509,-0.4514,-0.4487,-0.4511,-0.4482,-0.4475,-0.4476,-0.4487,-0.4566,-0.459,-0.4643,-0.4534,-0.4535,-0.4536,0,-0.4775,-0.4759,-0.4771,-0.4735,-0.4731,-0.4734,-0.4715,-0.4709,-0.4683,-0.4665,-0.4652,-0.4618,-0.4619,-0.4584,-0.4585,-0.4566,-0.4561,-0.4547,-0.4548,-0.4549,-0.4511,-0.4571,-0.4658,-0.4668,-0.4546,-0.4545,-0.4544,0,-0.485,-0.483,-0.4835,-0.4825,-0.4782,-0.4785,-0.4768,-0.4741,-0.4733,-0.4716,-0.4711,-0.4694,-0.4686,-0.4675,-0.4638,-0.4616,-0.4645,-0.4606,-0.4631,-0.4633,-0.4642,-0.4642,-0.4733,-0.4634,-0.4634,-0.4634,-0.4634,0,-0.4914,-0.4924,-0.4868,-0.4872,-0.4882,-0.4837,-0.4848,-0.4826,-0.4802,-0.4801,-0.4757,-0.4757,-0.4708,-0.4703,-0.4674,-0.4681,-0.4677,-0.4663,-0.4656,-0.4669,-0.4671,-0.4667,-0.4663,-0.4636,-0.4635,-0.4635,-0.4635,0,-0.5,-0.4963,-0.4966,-0.4925,-0.4915,-0.4924,-0.4889,-0.4891,-0.4864,-0.4863,-0.4861,-0.4818,-0.481,-0.4772,-0.4754,-0.4735,-0.4752,-0.4736,-0.4761,-0.4757,-0.4785,-0.4784,-0.4879,-0.489,-0.4782,-0.4783,-0.4784,0,-0.5045,-0.5052,-0.5012,-0.5008,-0.4993,-0.4986,-0.4978,-0.4935,-0.4928,-0.49,-0.4906,-0.4893,-0.4882,-0.487,-0.4839,-0.4825,-0.481,-0.4844,-0.4808,-0.4821,-0.4814,-0.4815,-0.4817,-0.4853,-0.4854,-0.4855,-0.4856,0,-0.513,-0.5112,-0.5101,-0.5085,-0.5077,-0.5062,-0.5044,-0.5043,-0.4995,-0.499,-0.4981,-0.4971,-0.4953,-0.4943,-0.4924,-0.4906,-0.4874,-0.4867,-0.4873,-0.4888,-0.4903,-0.4898,-0.4785,-0.4866,-0.4865,-0.4864,-0.4864,-0.4863,-0.5199,-0.5203,-0.5176,-0.5167,-0.5149,-0.5134,-0.5134,-0.5107,-0.5098,-0.5081,-0.5055,-0.505,-0.5024,-0.4996,-0.498,-0.4976,-0.4958,-0.4965,-0.4968,-0.4971,-0.4978,-0.4901,-0.4972,-0.4972,-0.4971,-0.4971,-0.4971,0,-0.5284,-0.5264,-0.5256,-0.5233,-0.5226,-0.5194,-0.5173,-0.517,-0.5166,-0.5145,-0.5134,-0.5124,-0.5113,-0.508,-0.5067,-0.507,-0.5055,-0.5068,-0.5069,-0.5066,-0.4994,-0.4992,-0.508,-0.508,-0.508,-0.508,-0.508,-0.508,-0.5328,-0.5334,-0.5312,-0.531,-0.5289,-0.5284,-0.5275,-0.5261,-0.5244,-0.5236,-0.5226,-0.5205,-0.5179,-0.5163,-0.5152,-0.5143,-0.5141,-0.516,-0.5146,-0.5081,-0.507,-0.506,-0.5058,-0.5159,-0.5159,-0.5218,-0.5218,-0.5219]}]]